Home   Weather   San Luis   Past weeks
Flag for Argentina

Past Weather in San Luis, San Luis, Argentina — Yesterday and Last 2 Weeks

Now
65 °F

Passing clouds.


Feels Like: 65 °F
Forecast: N/A
Wind: No wind

Location: Villa Dolores Aerodrome

Current Time: Apr 8, 2020 at 7:49:43 pm

Latest Report: Apr 8, 2020 at 6:00 pm


Visibility: 19 mi

Pressure: 30.14 "Hg (27.66 "Hg at 731m altitude)

Humidity: 52%

Dew Point: 47 °F

Location of San LuisLocation

Past Weather in San Luis — Graph

°F

San Luis Temperature Yesterday

Maximum temperature yesterday: 69 °F (at 5:00 pm)
Minimum temperature yesterday: 56 °F (at 3:00 am)
Average temperature yesterday: 63 °F

High & Low Weather Summary for the Past Weeks

 TemperatureHumidityPressure
High93 °F (Mar 24, 6:00 pm)99% (Mar 25, 8:00 am)30.30 "Hg (Mar 25, 8:00 am)
Low52 °F (Apr 2, 8:00 am)28% (Apr 6, 3:00 pm)29.69 "Hg (Mar 24, 7:00 pm)
Average68 °F71%29.98 "Hg
* Reported Mar 24 6:00 pm — Apr 8 6:00 pm, San Luis. Weather by CustomWeather, © 2020

Note: Actual official high and low records may vary slightly from our data, if they occured in-between our weather recording intervals... More about our weather records

San Luis Weather History for the Previous 24 Hours

Scroll right to see more
 ConditionsComfort  
Time TempWeatherWind HumidityBarometerVisibility
6:00 pm
Wed, Apr 8
65 °FPassing clouds.No wind52%30.14 "Hg19 mi
5:00 pm65 °FPartly sunny.3 mph49%30.12 "Hg19 mi
4:00 pm68 °FPartly sunny.5 mph44%30.16 "Hg19 mi
3:00 pm71 °FScattered clouds.9 mph41%30.16 "Hg19 mi
2:00 pm70 °FScattered clouds.2 mph42%30.18 "Hg19 mi
1:00 pm68 °FPartly sunny.8 mph44%30.21 "Hg19 mi
12:00 pm66 °FPartly sunny.6 mph45%30.22 "Hg19 mi
11:00 am64 °FPartly sunny.5 mph51%30.23 "Hg19 mi
10:00 am60 °FOvercast.2 mph71%30.23 "Hg19 mi
9:00 am59 °FOvercast.No wind75%30.24 "Hg19 mi
8:00 am58 °FOvercast.3 mph72%30.21 "Hg19 mi
7:00 am58 °FOvercast.No wind78%30.22 "Hg19 mi
6:00 am59 °FPassing clouds.No wind73%30.21 "Hg19 mi
3:00 am60 °FOvercast.No wind72%30.24 "Hg19 mi
12:00 am62 °FOvercast.No wind78%30.24 "Hg19 mi
9:00 pm
Tue, Apr 7
63 °FOvercast.No wind76%30.19 "Hg19 mi
8:00 pm64 °FOvercast.No wind64%30.16 "Hg19 mi
7:00 pm65 °FOvercast.No wind57%30.15 "Hg19 mi
Weather by CustomWeather, © 2020

See weather overview

Advertising